AZU4554 SBKP-SBSI

Flight info

Callsign AZU4554
Flight time 1h 56m
Altitude 38000
Route VUPOG UM417 EVRIV DCT MIPAD DCT MATMO
Aircraft A20N/M-SDE2E3FGHIRWXY/LB1

Departure

Time 2026-05-05 23:17
Airport Viracopos International Airport (SBKP)

Arrival

Time 2026-05-06 01:13
Airport Presidente João Batista Figueiredo Airport (SBSI)
Time Latitude Longitude Altitude Speed Heading
2026-05-05 22:52 -23.00419 -47.15036 2165 ft 0 kts 38°
2026-05-05 23:01 -23.00419 -47.15037 2165 ft 0 kts 38°
2026-05-05 23:05 -23.00420 -47.15037 2165 ft 2 kts 38°
2026-05-05 23:06 -23.00440 -47.15053 2162 ft 4 kts 34°
2026-05-05 23:06 -23.00463 -47.15069 2142 ft 4 kts 26°
2026-05-05 23:06 -23.00488 -47.15079 2164 ft 4 kts
2026-05-05 23:06 -23.00510 -47.15076 2157 ft 3 kts 309°
2026-05-05 23:07 -23.00515 -47.15070 2159 ft 0 kts 306°
2026-05-05 23:09 -23.00511 -47.15075 2165 ft 3 kts 307°
2026-05-05 23:09 -23.00482 -47.15117 2156 ft 10 kts 308°
2026-05-05 23:10 -23.00453 -47.15157 2158 ft 0 kts 308°
2026-05-05 23:10 -23.00452 -47.15158 2163 ft 1 kts 309°
2026-05-05 23:10 -23.00427 -47.15185 2165 ft 8 kts 334°
2026-05-05 23:11 -23.00354 -47.15150 2163 ft 15 kts 39°
2026-05-05 23:11 -23.00272 -47.15081 2164 ft 14 kts 38°
2026-05-05 23:11 -23.00201 -47.15021 2159 ft 14 kts 38°
2026-05-05 23:11 -23.00113 -47.14945 2165 ft 18 kts 39°
2026-05-05 23:12 -23.00025 -47.14870 2156 ft 10 kts 54°
2026-05-05 23:12 -22.99970 -47.14802 2165 ft 14 kts 37°
2026-05-05 23:12 -22.99931 -47.14770 2161 ft 0 kts 38°
2026-05-05 23:14 -22.99930 -47.14769 2161 ft 1 kts 38°
2026-05-05 23:14 -22.99909 -47.14743 2156 ft 8 kts 56°
2026-05-05 23:14 -22.99884 -47.14674 2159 ft 3 kts 69°
2026-05-05 23:14 -22.99893 -47.14630 2161 ft 10 kts 128°
2026-05-05 23:15 -22.99901 -47.14619 2160 ft 0 kts 129°
2026-05-05 23:15 -22.99903 -47.14617 2160 ft 0 kts 130°
2026-05-05 23:16 -22.99985 -47.14506 2161 ft 49 kts 127°
2026-05-05 23:16 -23.00315 -47.14043 2160 ft 105 kts 128°
2026-05-05 23:16 -23.00872 -47.13265 2165 ft 153 kts 128°
2026-05-05 23:16 -23.01534 -47.12371 2734 ft 138 kts 129°
2026-05-05 23:17 -23.02143 -47.11576 3205 ft 139 kts 127°
2026-05-05 23:17 -23.02394 -47.10511 3475 ft 164 kts 81°
2026-05-05 23:17 -23.02031 -47.09233 3764 ft 189 kts 73°
2026-05-05 23:17 -23.01622 -47.07802 4070 ft 209 kts 77°
2026-05-05 23:18 -23.01278 -47.06222 4516 ft 219 kts 80°
2026-05-05 23:18 -23.00981 -47.04543 4901 ft 238 kts 81°
2026-05-05 23:18 -23.00665 -47.02692 5256 ft 258 kts 75°
2026-05-05 23:18 -22.99719 -47.01015 5875 ft 269 kts 44°
2026-05-05 23:19 -22.98233 -46.99740 6598 ft 275 kts 37°
2026-05-05 23:19 -22.96659 -46.98538 7302 ft 278 kts 37°
2026-05-05 23:19 -22.95074 -46.97315 8072 ft 280 kts 37°
2026-05-05 23:19 -22.93488 -46.96065 8886 ft 282 kts 37°
2026-05-05 23:20 -22.91814 -46.94942 9709 ft 286 kts 24°
2026-05-05 23:20 -22.89853 -46.94505 10370 ft 297 kts 359°
2026-05-05 23:20 -22.88477 -46.94781 10589 ft 312 kts 341°
2026-05-05 23:20 -22.85776 -46.96270 10999 ft 338 kts 330°
2026-05-05 23:21 -22.84415 -46.97139 11285 ft 347 kts 330°
2026-05-05 23:21 -22.82318 -46.98483 11838 ft 354 kts 330°
2026-05-05 23:21 -22.80177 -46.99837 12447 ft 359 kts 330°
2026-05-05 23:21 -22.77997 -47.01200 13090 ft 363 kts 330°
2026-05-05 23:22 -22.75773 -47.02527 13768 ft 367 kts 333°
2026-05-05 23:22 -22.73493 -47.03799 14406 ft 371 kts 333°
2026-05-05 23:22 -22.71181 -47.05070 14999 ft 375 kts 333°
2026-05-05 23:22 -22.68842 -47.06353 15576 ft 379 kts 333°
2026-05-05 23:23 -22.66477 -47.07650 16156 ft 383 kts 333°
2026-05-05 23:23 -22.64089 -47.08959 16715 ft 387 kts 333°
2026-05-05 23:23 -22.61681 -47.10279 17259 ft 391 kts 333°
2026-05-05 23:23 -22.59242 -47.11616 17774 ft 394 kts 333°
2026-05-05 23:24 -22.56785 -47.12963 18288 ft 398 kts 332°
2026-05-05 23:24 -22.54300 -47.14324 18731 ft 401 kts 332°
2026-05-05 23:24 -22.51805 -47.15690 19182 ft 404 kts 332°
2026-05-05 23:24 -22.49291 -47.17066 19635 ft 406 kts 332°
2026-05-05 23:25 -22.46758 -47.18452 20092 ft 409 kts 332°
2026-05-05 23:25 -22.44216 -47.19842 20561 ft 412 kts 332°
2026-05-05 23:25 -22.41653 -47.21243 21036 ft 414 kts 332°
2026-05-05 23:25 -22.39070 -47.22655 21528 ft 417 kts 332°
2026-05-05 23:26 -22.36475 -47.24073 22031 ft 420 kts 332°
2026-05-05 23:26 -22.33853 -47.25505 22516 ft 423 kts 331°
2026-05-05 23:26 -22.31216 -47.26948 22998 ft 427 kts 330°
2026-05-05 23:26 -22.28660 -47.28580 23489 ft 428 kts 323°
2026-05-05 23:27 -22.26352 -47.30601 23946 ft 428 kts 316°
2026-05-05 23:27 -22.24161 -47.32793 24356 ft 431 kts 314°
2026-05-05 23:27 -22.21983 -47.35024 24754 ft 433 kts 314°
2026-05-05 23:27 -22.19795 -47.37267 25149 ft 436 kts 314°
2026-05-05 23:28 -22.17587 -47.39524 25539 ft 438 kts 313°
2026-05-05 23:28 -22.15360 -47.41794 25913 ft 441 kts 313°
2026-05-05 23:28 -22.13122 -47.44073 26297 ft 444 kts 313°
2026-05-05 23:28 -22.10872 -47.46362 26671 ft 446 kts 313°
2026-05-05 23:29 -22.08607 -47.48663 27052 ft 449 kts 313°
2026-05-05 23:29 -22.06328 -47.50976 27415 ft 451 kts 313°
2026-05-05 23:29 -22.04036 -47.53303 27768 ft 454 kts 313°
2026-05-05 23:29 -22.01733 -47.55639 28117 ft 456 kts 313°
2026-05-05 23:30 -21.99420 -47.57984 28450 ft 458 kts 312°
2026-05-05 23:30 -21.97090 -47.60344 28780 ft 460 kts 312°
2026-05-05 23:30 -21.94751 -47.62713 29112 ft 463 kts 312°
2026-05-05 23:30 -21.92400 -47.65093 29425 ft 465 kts 312°
2026-05-05 23:31 -21.90070 -47.67451 29751 ft 467 kts 312°
2026-05-05 23:31 -21.87588 -47.69748 30070 ft 472 kts 315°
2026-05-05 23:31 -21.85048 -47.71984 30460 ft 471 kts 316°
2026-05-05 23:31 -21.82501 -47.74197 30880 ft 470 kts 316°
2026-05-05 23:32 -21.79957 -47.76388 31308 ft 467 kts 316°
2026-05-05 23:32 -21.77420 -47.78563 31718 ft 466 kts 316°
2026-05-05 23:32 -21.74884 -47.80734 32082 ft 465 kts 316°
2026-05-05 23:32 -21.72357 -47.82895 32461 ft 464 kts 315°
2026-05-05 23:33 -21.69828 -47.85058 32840 ft 463 kts 315°
2026-05-05 23:33 -21.67313 -47.87210 33209 ft 462 kts 315°
2026-05-05 23:33 -21.64805 -47.89355 33565 ft 461 kts 315°
2026-05-05 23:33 -21.62300 -47.91498 33903 ft 460 kts 315°
2026-05-05 23:34 -21.59796 -47.93640 34213 ft 459 kts 315°
2026-05-05 23:34 -21.57297 -47.95777 34432 ft 460 kts 314°
2026-05-05 23:34 -21.54787 -47.97924 34658 ft 461 kts 314°
2026-05-05 23:34 -21.52275 -48.00070 34880 ft 462 kts 314°
2026-05-05 23:35 -21.49763 -48.02215 35095 ft 462 kts 314°
2026-05-05 23:35 -21.47248 -48.04361 35323 ft 462 kts 314°
2026-05-05 23:35 -21.44728 -48.06510 35551 ft 463 kts 313°
2026-05-05 23:35 -21.42208 -48.08658 35776 ft 463 kts 313°
2026-05-05 23:36 -21.39686 -48.10806 35981 ft 463 kts 313°
2026-05-05 23:36 -21.37160 -48.12958 36152 ft 464 kts 313°
2026-05-05 23:36 -21.34628 -48.15113 36349 ft 464 kts 313°
2026-05-05 23:36 -21.32097 -48.17266 36561 ft 464 kts 312°
2026-05-05 23:37 -21.29566 -48.19418 36753 ft 464 kts 312°
2026-05-05 23:37 -21.27036 -48.21568 36949 ft 464 kts 312°
2026-05-05 23:37 -21.24503 -48.23720 37116 ft 465 kts 312°
2026-05-05 23:37 -21.21969 -48.25872 37351 ft 464 kts 311°
2026-05-05 23:38 -21.19439 -48.28018 37545 ft 464 kts 311°
2026-05-05 23:38 -21.16911 -48.30162 37737 ft 463 kts 311°
2026-05-05 23:38 -21.14385 -48.32305 37914 ft 463 kts 311°
2026-05-05 23:38 -21.11896 -48.34416 38092 ft 463 kts 311°
2026-05-05 23:39 -21.06811 -48.38732 38144 ft 470 kts 311°
2026-05-05 23:39 -21.01650 -48.43109 38139 ft 476 kts 311°
2026-05-05 23:40 -20.96462 -48.47487 38132 ft 474 kts 311°
2026-05-05 23:40 -20.91295 -48.51845 38135 ft 473 kts 311°
2026-05-05 23:41 -20.86136 -48.56199 38133 ft 473 kts 311°
2026-05-05 23:41 -20.80973 -48.60554 38122 ft 473 kts 311°
2026-05-05 23:42 -20.75808 -48.64907 38132 ft 473 kts 312°
2026-05-05 23:42 -20.70645 -48.69254 38129 ft 472 kts 312°
2026-05-05 23:43 -20.65491 -48.73589 38129 ft 472 kts 312°
2026-05-05 23:43 -20.60331 -48.77925 38110 ft 472 kts 312°
2026-05-05 23:44 -20.55176 -48.82253 38123 ft 472 kts 312°
2026-05-05 23:44 -20.50013 -48.86584 38129 ft 472 kts 312°
2026-05-05 23:45 -20.44848 -48.90914 38124 ft 472 kts 312°
2026-05-05 23:45 -20.39688 -48.95235 38118 ft 472 kts 312°
2026-05-05 23:46 -20.34523 -48.99556 38125 ft 472 kts 312°
2026-05-05 23:46 -20.29354 -49.03877 38119 ft 472 kts 312°
2026-05-05 23:47 -20.24187 -49.08193 38127 ft 472 kts 312°
2026-05-05 23:47 -20.19019 -49.12505 38116 ft 472 kts 313°
2026-05-05 23:48 -20.13850 -49.16815 38120 ft 472 kts 313°
2026-05-05 23:48 -20.08712 -49.21095 38120 ft 472 kts 313°
2026-05-05 23:49 -20.03534 -49.25404 38122 ft 472 kts 313°
2026-05-05 23:49 -19.98359 -49.29707 38116 ft 473 kts 313°
2026-05-05 23:50 -19.93175 -49.34014 38122 ft 473 kts 313°
2026-05-05 23:50 -19.87995 -49.38315 38122 ft 473 kts 313°
2026-05-05 23:51 -19.82813 -49.42614 38122 ft 473 kts 313°
2026-05-05 23:51 -19.77629 -49.46910 38121 ft 473 kts 313°
2026-05-05 23:52 -19.72443 -49.51204 38121 ft 473 kts 313°
2026-05-05 23:52 -19.67259 -49.55493 38120 ft 473 kts 313°
2026-05-05 23:53 -19.62068 -49.59785 38118 ft 473 kts 313°
2026-05-05 23:53 -19.56880 -49.64070 38103 ft 474 kts 313°
2026-05-05 23:54 -19.51663 -49.68379 38119 ft 475 kts 313°
2026-05-05 23:54 -19.46458 -49.72667 38117 ft 474 kts 313°
2026-05-05 23:55 -19.41253 -49.76954 38119 ft 474 kts 313°
2026-05-05 23:55 -19.36048 -49.81241 38103 ft 474 kts 313°
2026-05-05 23:56 -19.30841 -49.85524 38113 ft 474 kts 313°
2026-05-05 23:56 -19.25634 -49.89803 38114 ft 474 kts 314°
2026-05-05 23:57 -19.20418 -49.94086 38110 ft 475 kts 313°
2026-05-05 23:57 -19.15199 -49.98368 38105 ft 474 kts 313°
2026-05-05 23:58 -19.09947 -50.02674 38107 ft 474 kts 314°
2026-05-05 23:58 -19.04766 -50.06919 38106 ft 475 kts 314°
2026-05-05 23:59 -18.99545 -50.11192 38104 ft 475 kts 314°
2026-05-05 23:59 -18.94322 -50.15462 38102 ft 475 kts 314°
2026-05-06 00:00 -18.89099 -50.19730 38098 ft 475 kts 314°
2026-05-06 00:00 -18.83874 -50.23997 38100 ft 475 kts 314°
2026-05-06 00:01 -18.78651 -50.28257 38100 ft 475 kts 314°
2026-05-06 00:01 -18.73425 -50.32517 38101 ft 475 kts 314°
2026-05-06 00:02 -18.68201 -50.36773 38100 ft 475 kts 314°
2026-05-06 00:02 -18.62971 -50.41029 38102 ft 475 kts 314°
2026-05-06 00:03 -18.57739 -50.45284 38102 ft 474 kts 314°
2026-05-06 00:03 -18.52516 -50.49527 38104 ft 474 kts 314°
2026-05-06 00:04 -18.47290 -50.53770 38105 ft 474 kts 314°
2026-05-06 00:04 -18.42062 -50.58012 38111 ft 475 kts 314°
2026-05-06 00:05 -18.34217 -50.64369 38115 ft 475 kts 314°
2026-05-06 00:06 -18.29866 -50.67892 38114 ft 474 kts 314°
2026-05-06 00:06 -18.24638 -50.72123 38118 ft 474 kts 315°
2026-05-06 00:07 -18.18523 -50.77066 38112 ft 474 kts 315°
2026-05-06 00:07 -18.14140 -50.80608 38115 ft 474 kts 315°
2026-05-06 00:08 -18.08940 -50.84806 38122 ft 475 kts 315°
2026-05-06 00:08 -18.03703 -50.89030 38106 ft 474 kts 315°
2026-05-06 00:09 -17.98468 -50.93249 38117 ft 474 kts 315°
2026-05-06 00:09 -17.93244 -50.97457 38117 ft 474 kts 315°
2026-05-06 00:10 -17.88014 -51.01666 38120 ft 474 kts 315°
2026-05-06 00:10 -17.82778 -51.05877 38117 ft 474 kts 315°
2026-05-06 00:11 -17.77546 -51.10081 38131 ft 474 kts 315°
2026-05-06 00:11 -17.72308 -51.14287 38120 ft 474 kts 315°
2026-05-06 00:12 -17.67072 -51.18488 38125 ft 474 kts 315°
2026-05-06 00:12 -17.61840 -51.22683 38127 ft 474 kts 315°
2026-05-06 00:13 -17.56599 -51.26882 38131 ft 474 kts 315°
2026-05-06 00:13 -17.51364 -51.31073 38134 ft 474 kts 315°
2026-05-06 00:14 -17.46123 -51.35266 38126 ft 474 kts 316°
2026-05-06 00:14 -17.40891 -51.39448 38129 ft 473 kts 316°
2026-05-06 00:15 -17.35655 -51.43630 38120 ft 473 kts 316°
2026-05-06 00:15 -17.30428 -51.47803 38135 ft 473 kts 316°
2026-05-06 00:16 -17.25197 -51.51974 38133 ft 473 kts 316°
2026-05-06 00:16 -17.19970 -51.56141 38120 ft 473 kts 316°
2026-05-06 00:17 -17.14742 -51.60304 38116 ft 471 kts 316°
2026-05-06 00:17 -17.09522 -51.64459 38124 ft 471 kts 316°
2026-05-06 00:18 -17.04337 -51.68583 38119 ft 471 kts 316°
2026-05-06 00:18 -16.99118 -51.72731 38115 ft 472 kts 316°
2026-05-06 00:19 -16.93896 -51.76878 38114 ft 472 kts 316°
2026-05-06 00:19 -16.88669 -51.81025 38089 ft 471 kts 316°
2026-05-06 00:20 -16.83450 -51.85163 38102 ft 470 kts 317°
2026-05-06 00:20 -16.78245 -51.89288 38094 ft 470 kts 317°
2026-05-06 00:21 -16.73034 -51.93415 38092 ft 470 kts 317°
2026-05-06 00:21 -16.67818 -51.97543 38089 ft 471 kts 317°
2026-05-06 00:22 -16.62606 -52.01665 38083 ft 470 kts 317°
2026-05-06 00:22 -16.57393 -52.05784 38079 ft 470 kts 317°
2026-05-06 00:23 -16.52187 -52.09894 38073 ft 469 kts 317°
2026-05-06 00:23 -16.46983 -52.14001 38075 ft 469 kts 317°
2026-05-06 00:24 -16.41777 -52.18107 38060 ft 469 kts 317°
2026-05-06 00:24 -16.36574 -52.22207 38066 ft 469 kts 317°
2026-05-06 00:25 -16.31378 -52.26299 38062 ft 469 kts 317°
2026-05-06 00:25 -16.26178 -52.30391 38061 ft 468 kts 317°
2026-05-06 00:26 -16.20981 -52.34478 38057 ft 468 kts 317°
2026-05-06 00:26 -16.15826 -52.38526 38057 ft 459 kts 318°
2026-05-06 00:27 -16.10770 -52.42496 38061 ft 461 kts 318°
2026-05-06 00:27 -16.05607 -52.46557 38069 ft 469 kts 318°
2026-05-06 00:28 -16.00387 -52.50653 38049 ft 470 kts 318°
2026-05-06 00:28 -15.95169 -52.54738 38048 ft 469 kts 318°
2026-05-06 00:29 -15.89962 -52.58814 38042 ft 468 kts 319°
2026-05-06 00:29 -15.84770 -52.62878 38049 ft 467 kts 319°
2026-05-06 00:30 -15.79579 -52.66940 38044 ft 467 kts 319°
2026-05-06 00:30 -15.74386 -52.71000 38045 ft 467 kts 319°
2026-05-06 00:31 -15.69189 -52.75060 38048 ft 467 kts 319°
2026-05-06 00:31 -15.63996 -52.79114 38038 ft 467 kts 319°
2026-05-06 00:32 -15.58806 -52.83163 38034 ft 467 kts 319°
2026-05-06 00:32 -15.53619 -52.87207 38036 ft 467 kts 319°
2026-05-06 00:33 -15.48429 -52.91251 38033 ft 467 kts 319°
2026-05-06 00:33 -15.43238 -52.95294 38042 ft 467 kts 319°
2026-05-06 00:34 -15.38046 -52.99335 38048 ft 467 kts 319°
2026-05-06 00:34 -15.32852 -53.03374 38044 ft 467 kts 320°
2026-05-06 00:35 -15.27659 -53.07409 38045 ft 466 kts 320°
2026-05-06 00:35 -15.22468 -53.11441 38044 ft 466 kts 320°
2026-05-06 00:36 -15.17274 -53.15473 38041 ft 466 kts 320°
2026-05-06 00:36 -15.12081 -53.19502 38042 ft 467 kts 320°
2026-05-06 00:37 -15.06889 -53.23527 38039 ft 467 kts 320°
2026-05-06 00:37 -15.01695 -53.27551 38046 ft 466 kts 320°
2026-05-06 00:38 -14.96540 -53.31543 38037 ft 466 kts 320°
2026-05-06 00:38 -14.91351 -53.35558 38045 ft 465 kts 320°
2026-05-06 00:39 -14.86168 -53.39565 38044 ft 465 kts 320°
2026-05-06 00:39 -14.80982 -53.43574 38046 ft 465 kts 320°
2026-05-06 00:40 -14.75795 -53.47580 38047 ft 465 kts 320°
2026-05-06 00:40 -14.70610 -53.51583 38044 ft 465 kts 320°
2026-05-06 00:41 -14.65422 -53.55585 38047 ft 465 kts 320°
2026-05-06 00:41 -14.60241 -53.59579 38049 ft 465 kts 320°
2026-05-06 00:42 -14.55033 -53.63546 38043 ft 466 kts 322°
2026-05-06 00:42 -14.49678 -53.67328 38041 ft 466 kts 323°
2026-05-06 00:43 -14.44284 -53.71044 38036 ft 466 kts 323°
2026-05-06 00:43 -14.38903 -53.74765 38043 ft 466 kts 323°
2026-05-06 00:44 -14.33532 -53.78500 38037 ft 465 kts 323°
2026-05-06 00:44 -14.28168 -53.82237 38039 ft 465 kts 323°
2026-05-06 00:45 -14.22808 -53.85970 38039 ft 465 kts 323°
2026-05-06 00:45 -14.17478 -53.89679 38036 ft 465 kts 323°
2026-05-06 00:46 -14.12123 -53.93403 38033 ft 464 kts 323°
2026-05-06 00:46 -14.06762 -53.97128 38031 ft 464 kts 323°
2026-05-06 00:47 -14.01408 -54.00846 38030 ft 464 kts 323°
2026-05-06 00:47 -13.96049 -54.04566 38031 ft 464 kts 323°
2026-05-06 00:48 -13.90694 -54.08281 38031 ft 464 kts 323°
2026-05-06 00:48 -13.85342 -54.11992 38030 ft 463 kts 323°
2026-05-06 00:49 -13.79997 -54.15695 38029 ft 463 kts 323°
2026-05-06 00:49 -13.74648 -54.19400 38029 ft 463 kts 323°
2026-05-06 00:50 -13.69302 -54.23101 38026 ft 463 kts 323°
2026-05-06 00:50 -13.63955 -54.26799 38025 ft 463 kts 323°
2026-05-06 00:51 -13.58602 -54.30501 38022 ft 463 kts 323°
2026-05-06 00:51 -13.53249 -54.34199 38024 ft 463 kts 323°
2026-05-06 00:52 -13.47900 -54.37894 38021 ft 463 kts 323°
2026-05-06 00:52 -13.42547 -54.41589 38021 ft 464 kts 323°
2026-05-06 00:53 -13.37191 -54.45284 38017 ft 464 kts 323°
2026-05-06 00:53 -13.32745 -54.48350 38038 ft 464 kts 323°
2026-05-06 00:53 -13.29165 -54.50817 37649 ft 463 kts 324°
2026-05-06 00:54 -13.26526 -54.52636 37124 ft 464 kts 324°
2026-05-06 00:54 -13.23830 -54.54495 36275 ft 470 kts 324°
2026-05-06 00:54 -13.21103 -54.56374 35496 ft 474 kts 324°
2026-05-06 00:54 -13.18353 -54.58268 34743 ft 478 kts 324°
2026-05-06 00:55 -13.16479 -54.59559 34228 ft 481 kts 324°
2026-05-06 00:55 -13.13729 -54.61451 33412 ft 484 kts 324°
2026-05-06 00:55 -13.10927 -54.63379 32555 ft 487 kts 324°
2026-05-06 00:55 -13.08101 -54.65321 31699 ft 491 kts 324°
2026-05-06 00:56 -13.04294 -54.67938 30701 ft 493 kts 324°
2026-05-06 00:56 -13.02410 -54.69233 30301 ft 491 kts 324°
2026-05-06 00:56 -12.99538 -54.71205 29650 ft 489 kts 324°
2026-05-06 00:56 -12.96769 -54.73106 29074 ft 484 kts 324°
2026-05-06 00:57 -12.93986 -54.75017 28472 ft 480 kts 325°
2026-05-06 00:57 -12.91233 -54.76908 27955 ft 474 kts 325°
2026-05-06 00:57 -12.88500 -54.78784 27383 ft 470 kts 325°
2026-05-06 00:57 -12.85794 -54.80641 26838 ft 466 kts 326°
2026-05-06 00:58 -12.83126 -54.82509 26289 ft 463 kts 322°
2026-05-06 00:58 -12.80820 -54.84780 25746 ft 458 kts 313°
2026-05-06 00:58 -12.78661 -54.87162 25212 ft 455 kts 312°
2026-05-06 00:58 -12.76577 -54.89584 24684 ft 451 kts 311°
2026-05-06 00:59 -12.74545 -54.92020 24170 ft 448 kts 310°
2026-05-06 00:59 -12.72544 -54.94452 23645 ft 445 kts 310°
2026-05-06 00:59 -12.70564 -54.96865 23015 ft 440 kts 310°
2026-05-06 00:59 -12.68608 -54.99244 22116 ft 435 kts 310°
2026-05-06 01:00 -12.66665 -55.01599 21216 ft 430 kts 311°
2026-05-06 01:00 -12.64742 -55.03920 20369 ft 425 kts 311°
2026-05-06 01:00 -12.62834 -55.06219 19514 ft 421 kts 311°
2026-05-06 01:00 -12.60946 -55.08490 18716 ft 417 kts 311°
2026-05-06 01:01 -12.59077 -55.10735 17971 ft 410 kts 311°
2026-05-06 01:01 -12.57246 -55.12935 17336 ft 403 kts 311°
2026-05-06 01:01 -12.55437 -55.15108 16750 ft 400 kts 311°
2026-05-06 01:01 -12.53633 -55.17273 16172 ft 398 kts 311°
2026-05-06 01:02 -12.51841 -55.19423 15593 ft 396 kts 311°
2026-05-06 01:02 -12.50059 -55.21561 15011 ft 394 kts 311°
2026-05-06 01:02 -12.48279 -55.23698 14424 ft 393 kts 311°
2026-05-06 01:02 -12.46507 -55.25823 13847 ft 392 kts 311°
2026-05-06 01:03 -12.44742 -55.27939 13210 ft 390 kts 311°
2026-05-06 01:03 -12.42986 -55.30044 12637 ft 387 kts 311°
2026-05-06 01:03 -12.41251 -55.32125 12086 ft 383 kts 311°
2026-05-06 01:03 -12.39528 -55.34191 11526 ft 379 kts 311°
2026-05-06 01:04 -12.37826 -55.36231 11017 ft 376 kts 311°
2026-05-06 01:04 -12.36137 -55.38255 10486 ft 372 kts 311°
2026-05-06 01:04 -12.34470 -55.40252 10147 ft 363 kts 311°
2026-05-06 01:04 -12.32872 -55.42167 10028 ft 345 kts 311°
2026-05-06 01:05 -12.31359 -55.43980 9818 ft 326 kts 311°
2026-05-06 01:05 -12.29918 -55.45707 9452 ft 313 kts 311°
2026-05-06 01:05 -12.28517 -55.47384 8907 ft 310 kts 311°
2026-05-06 01:05 -12.27116 -55.49061 8444 ft 309 kts 311°
2026-05-06 01:06 -12.25724 -55.50725 8031 ft 308 kts 311°
2026-05-06 01:06 -12.24337 -55.52384 7631 ft 306 kts 311°
2026-05-06 01:06 -12.22958 -55.54033 7232 ft 304 kts 311°
2026-05-06 01:06 -12.21588 -55.55672 6844 ft 303 kts 312°
2026-05-06 01:07 -12.20224 -55.57303 6461 ft 301 kts 312°
2026-05-06 01:07 -12.18866 -55.58926 6063 ft 299 kts 312°
2026-05-06 01:07 -12.17518 -55.60538 5683 ft 297 kts 312°
2026-05-06 01:07 -12.16183 -55.62135 5313 ft 294 kts 312°
2026-05-06 01:08 -12.14758 -55.63601 5035 ft 286 kts 326°
2026-05-06 01:08 -12.13005 -55.64510 4592 ft 281 kts 349°
2026-05-06 01:08 -12.11122 -55.64582 4406 ft 264 kts 12°
2026-05-06 01:08 -12.09375 -55.64233 4223 ft 248 kts 17°
2026-05-06 01:09 -12.07747 -55.63820 4025 ft 235 kts 18°
2026-05-06 01:09 -12.06216 -55.63413 3893 ft 217 kts 19°
2026-05-06 01:09 -12.04799 -55.63033 3631 ft 206 kts 19°
2026-05-06 01:09 -12.03428 -55.62661 3210 ft 204 kts 18°
2026-05-06 01:10 -12.02063 -55.62289 2925 ft 202 kts 18°
2026-05-06 01:10 -12.00731 -55.61930 2842 ft 190 kts 18°
2026-05-06 01:10 -11.99539 -55.61614 2816 ft 164 kts 19°
2026-05-06 01:10 -11.98486 -55.61332 2842 ft 156 kts 19°
2026-05-06 01:11 -11.97475 -55.61060 2853 ft 143 kts 19°
2026-05-06 01:11 -11.96507 -55.60796 2781 ft 145 kts 19°
2026-05-06 01:11 -11.95524 -55.60527 2584 ft 147 kts 19°
2026-05-06 01:11 -11.94534 -55.60259 2356 ft 147 kts 20°
2026-05-06 01:12 -11.93562 -55.59996 2149 ft 146 kts 19°
2026-05-06 01:12 -11.92580 -55.59732 1971 ft 146 kts 19°
2026-05-06 01:12 -11.91597 -55.59466 1752 ft 146 kts 18°
2026-05-06 01:12 -11.90606 -55.59199 1510 ft 145 kts 17°
2026-05-06 01:13 -11.89647 -55.58941 1335 ft 146 kts 15°
2026-05-06 01:13 -11.88678 -55.58680 1232 ft 138 kts 15°
2026-05-06 01:13 -11.88078 -55.58521 1227 ft 40 kts 14°
2026-05-06 01:13 -11.87874 -55.58466 1224 ft 19 kts 15°
2026-05-06 01:14 -11.87832 -55.58408 1225 ft 1 kts 102°
2026-05-06 01:14 -11.87832 -55.58406 1225 ft 0 kts 102°
2026-05-06 01:14 -11.87833 -55.58402 1225 ft 3 kts 102°
2026-05-06 01:15 -11.87842 -55.58362 1227 ft 6 kts 104°
2026-05-06 01:15 -11.87843 -55.58359 1226 ft 0 kts 104°
2026-05-06 01:15 -11.87844 -55.58354 1226 ft 0 kts 104°
2026-05-06 01:16 -11.87846 -55.58349 1226 ft 4 kts 104°
2026-05-06 01:16 -11.87853 -55.58302 1226 ft 9 kts 77°
2026-05-06 01:16 -11.87828 -55.58287 1226 ft 7 kts 13°
2026-05-06 01:16 -11.87807 -55.58279 1226 ft 3 kts 34°
2026-05-06 01:17 -11.87801 -55.58268 1226 ft 0 kts 78°
2026-05-06 01:17 -11.87801 -55.58254 1226 ft 2 kts 98°
2026-05-06 01:17 -11.87802 -55.58250 1226 ft 1 kts 101°